{"data":{"norad_id":61719,"epoch":"2026-05-25T04:05:05.762976Z","epoch_age_seconds":60256,"freshness":"FRESH","line1":"1 61719U 24196N   26145.17020559  .00000659  00000+0  34365-4 0  9997","line2":"2 61719  53.1604 106.2686 0001313  85.2045 274.9106 15.30196842 88864","mean_motion":15.30196842,"eccentricity":0.0001313,"inclination_deg":53.1604,"raan_deg":106.2686,"arg_perigee_deg":85.2045,"mean_anomaly_deg":274.9106,"bstar":3.4365e-5,"rev_number":8886,"period_min":94.105539919811,"perigee_km":474.32465228953,"apogee_km":476.12434501908,"semimajor_km":6853.3614986543,"source":"CELESTRAK","updated_at":"2026-05-25T13:38:19.446404Z"}}